User: anonymous   Login
Location: Caltech
(34.1382°N, 118.1253°W)
Time: 08:01:48
(UTC-07:00)
Language:

Cosmos 1943 Rocket - Orbit

View from above orbital plane
View from above orbital plane
View from above satellite
View from above satellite

Ground track
Ground track

The orbit data is extracted from the following two-line orbital elements,

1 19120U 88039B   16178.56410575 -.00000141  00000-0 -44465-4 0  9992
2 19120  71.0148 356.3219 0021529   7.7322 352.4130 14.19150619455936
Epoch (UTC): 26 June 2016 13:32:18
Eccentricity: 0.0021529
inclination: 71.0148°
perigee height: 813 km
apogee height: 844 km
right ascension of ascending node: 356.3219°
argument of perigee: 7.7322°
revolutions per day: 14.19150619
mean anomaly at epoch: 352.4130°
orbit number at epoch: 45593

The dashed part of the orbit path shows where the satellite is in the earth's shadow,  

DLR